Total_Precipitation_Accumulation
0.00 0.01 0.02 0.05 0.06 0.05 0.05 0.05 0.11 0.09 0.12 0.08 0.03 0.03 0.04 0.04 0.07 0.11 0.12 0.10 0.08 0.11 0.16 0.19 0.23 0.30 0.32 0.28 0.23 0.28 0.40 0.46 0.51 0.45 0.35 0.29 0.25 0.20 0.18 0.19 0.21 0.26 0.31 0.37
0.00 0.01 0.02 0.03 0.05 0.05 0.03 0.02 0.02 0.02 0.04 0.02 0.03 0.09 0.13 0.09 0.08 0.09 0.09 0.08 0.08 0.11 0.16 0.17 0.16 0.17 0.13 0.12 0.13 0.17 0.24 0.28 0.34 0.36 0.29 0.23 0.19 0.16 0.15 0.18 0.21 0.26 0.32 0.37
0.01 0.02 0.02 0.07 0.06 0.04 0.01 0.01 0.02 0.03 0.05 0.04 0.04 0.06 0.09 0.08 0.05 0.04 0.04 0.03 0.03 0.06 0.08 0.06 0.05 0.05 0.06 0.07 0.11 0.17 0.22 0.27 0.35 0.37 0.33 0.28 0.21 0.19 0.19 0.20 0.22 0.25 0.26 0.26
0.01 0.02 0.09 0.08 0.03 0.02 0.02 0.03 0.04 0.05 0.05 0.06 0.07 0.06 0.08 0.10 0.07 0.04 0.02 0.02 0.01 0.01 0.01 0.01 0.01 0.02 0.03 0.05 0.10 0.15 0.21 0.25 0.31 0.36 0.33 0.31 0.31 0.32 0.33 0.31 0.28 0.28 0.27 0.25
0.01 0.02 0.07 0.05 0.03 0.03 0.04 0.05 0.04 0.06 0.07 0.09 0.10 0.09 0.09 0.07 0.04 0.02 0.01 0.01 0.01 0.01 0.01 0.01 0.01 0.02 0.04 0.08 0.10 0.13 0.20 0.28 0.32 0.37 0.37 0.37 0.38 0.39 0.40 0.40 0.35 0.32 0.30 0.31
0.01 0.02 0.07 0.06 0.05 0.06 0.06 0.17 0.17 0.13 0.10 0.07 0.05 0.06 0.03 0.01 0.00 0.00 0.00 0.00 0.01 0.01 0.01 0.01 0.03 0.06 0.10 0.12 0.14 0.18 0.22 0.30 0.36 0.41 0.45 0.45 0.47 0.46 0.45 0.47 0.42 0.36 0.33 0.34
0.02 0.04 0.05 0.02 0.04 0.05 0.14 0.22 0.09 0.04 0.03 0.02 0.05 0.06 0.03 0.01 0.01 0.00 0.00 0.01 0.01 0.02 0.03 0.05 0.09 0.13 0.15 0.16 0.18 0.19 0.21 0.28 0.38 0.44 0.50 0.53 0.58 0.59 0.58 0.57 0.55 0.51 0.44 0.42
0.03 0.07 0.12 0.04 0.02 0.04 0.07 0.05 0.03 0.02 0.02 0.03 0.03 0.02 0.01 0.01 0.01 0.00 0.00 0.01 0.01 0.02 0.04 0.06 0.11 0.15 0.18 0.18 0.18 0.21 0.26 0.34 0.41 0.46 0.44 0.47 0.63 0.67 0.70 0.72 0.68 0.63 0.59 0.51
0.04 0.06 0.04 0.02 0.02 0.03 0.03 0.04 0.04 0.04 0.03 0.03 0.02 0.02 0.02 0.02 0.01 0.01 0.01 0.02 0.03 0.04 0.06 0.10 0.14 0.20 0.25 0.24 0.27 0.29 0.33 0.39 0.45 0.47 0.50 0.59 0.68 0.72 0.76 0.80 0.78 0.72 0.70 0.67
0.05 0.02 0.01 0.02 0.03 0.02 0.02 0.02 0.02 0.02 0.02 0.02 0.03 0.03 0.03 0.03 0.03 0.03 0.03 0.04 0.05 0.06 0.09 0.13 0.17 0.23 0.30 0.35 0.39 0.41 0.42 0.43 0.45 0.50 0.53 0.57 0.68 0.74 0.78 0.83 0.87 0.84 0.80 0.77
0.06 0.04 0.02 0.02 0.02 0.01 0.00 0.00 0.00 0.01 0.02 0.03 0.04 0.04 0.04 0.04 0.05 0.06 0.05 0.05 0.07 0.11 0.16 0.18 0.23 0.29 0.33 0.39 0.47 0.51 0.51 0.49 0.48 0.52 0.58 0.65 0.70 0.74 0.73 0.79 0.78 0.80 0.81 0.83
0.06 0.05 0.05 0.05 0.02 0.01 0.01 0.01 0.01 0.02 0.02 0.03 0.04 0.04 0.04 0.05 0.06 0.06 0.06 0.08 0.11 0.14 0.17 0.19 0.25 0.32 0.36 0.44 0.54 0.61 0.64 0.63 0.59 0.56 0.61 0.67 0.72 0.69 0.59 0.55 0.53 0.52 0.55 0.59
0.05 0.04 0.03 0.03 0.02 0.02 0.03 0.03 0.03 0.03 0.03 0.03 0.03 0.04 0.04 0.05 0.06 0.06 0.07 0.10 0.12 0.14 0.16 0.19 0.23 0.31 0.36 0.44 0.55 0.65 0.71 0.70 0.66 0.62 0.64 0.67 0.70 0.73 0.75 0.68 0.57 0.52 0.48 0.45
0.03 0.03 0.03 0.03 0.02 0.02 0.02 0.02 0.02 0.02 0.03 0.03 0.03 0.04 0.05 0.05 0.06 0.07 0.10 0.12 0.14 0.16 0.18 0.22 0.28 0.31 0.37 0.47 0.57 0.63 0.68 0.68 0.68 0.67 0.66 0.68 0.69 0.70 0.76 0.85 0.83 0.71 0.53 0.44
0.02 0.03 0.03 0.02 0.02 0.03 0.03 0.03 0.03 0.03 0.03 0.03 0.03 0.04 0.05 0.06 0.08 0.10 0.13 0.15 0.19 0.20 0.22 0.29 0.35 0.39 0.45 0.57 0.65 0.66 0.66 0.65 0.63 0.64 0.64 0.66 0.64 0.66 0.70 0.80 0.87 0.82 0.70 0.55
0.02 0.02 0.02 0.03 0.03 0.04 0.04 0.04 0.04 0.04 0.05 0.05 0.05 0.06 0.07 0.08 0.11 0.14 0.16 0.21 0.30 0.33 0.34 0.39 0.43 0.46 0.56 0.66 0.71 0.71 0.66 0.62 0.62 0.64 0.62 0.60 0.60 0.63 0.68 0.76 0.83 0.78 0.71 0.61
0.03 0.03 0.05 0.07 0.08 0.07 0.07 0.08 0.08 0.09 0.08 0.08 0.08 0.09 0.10 0.12 0.17 0.20 0.23 0.26 0.31 0.35 0.40 0.47 0.49 0.51 0.64 0.75 0.78 0.78 0.70 0.61 0.56 0.58 0.57 0.57 0.60 0.63 0.65 0.69 0.74 0.68 0.60 0.50
0.07 0.11 0.16 0.18 0.16 0.14 0.13 0.13 0.14 0.15 0.14 0.14 0.13 0.13 0.15 0.22 0.32 0.36 0.37 0.37 0.38 0.38 0.38 0.44 0.50 0.57 0.68 0.80 0.83 0.82 0.73 0.62 0.54 0.51 0.52 0.53 0.54 0.60 0.65 0.65 0.62 0.58 0.52 0.40
0.12 0.16 0.19 0.22 0.23 0.23 0.23 0.22 0.21 0.20 0.19 0.19 0.20 0.22 0.25 0.32 0.44 0.48 0.48 0.50 0.57 0.62 0.55 0.50 0.52 0.53 0.62 0.76 0.88 0.88 0.75 0.61 0.51 0.46 0.46 0.46 0.47 0.55 0.61 0.59 0.54 0.49 0.44 0.38
0.18 0.23 0.27 0.31 0.35 0.36 0.35 0.31 0.28 0.25 0.23 0.23 0.25 0.27 0.32 0.39 0.50 0.57 0.58 0.57 0.62 0.72 0.73 0.67 0.57 0.50 0.54 0.69 0.87 0.84 0.75 0.65 0.54 0.45 0.44 0.47 0.47 0.51 0.53 0.51 0.45 0.40 0.35 0.32
0.21 0.27 0.31 0.34 0.35 0.36 0.35 0.34 0.34 0.34 0.31 0.31 0.35 0.40 0.46 0.49 0.52 0.62 0.71 0.67 0.58 0.66 0.75 0.73 0.64 0.54 0.52 0.63 0.80 0.83 0.75 0.65 0.54 0.43 0.39 0.42 0.45 0.47 0.47 0.45 0.39 0.31 0.26 0.25
0.28 0.34 0.34 0.34 0.35 0.35 0.32 0.30 0.30 0.31 0.31 0.34 0.40 0.51 0.65 0.72 0.70 0.68 0.64 0.63 0.63 0.73 0.77 0.71 0.63 0.54 0.48 0.54 0.65 0.73 0.69 0.60 0.52 0.43 0.36 0.35 0.39 0.42 0.40 0.38 0.32 0.27 0.23 0.21
0.20 0.24 0.23 0.23 0.22 0.20 0.17 0.18 0.19 0.22 0.27 0.34 0.45 0.61 0.82 0.87 0.85 0.90 0.75 0.57 0.57 0.67 0.69 0.65 0.57 0.48 0.43 0.44 0.51 0.58 0.59 0.57 0.51 0.42 0.32 0.30 0.31 0.32 0.32 0.30 0.28 0.25 0.22 0.18
0.05 0.07 0.08 0.09 0.10 0.12 0.13 0.13 0.15 0.19 0.26 0.35 0.41 0.57 0.81 0.98 0.87 0.69 0.63 0.60 0.58 0.56 0.54 0.55 0.50 0.43 0.41 0.39 0.41 0.48 0.53 0.54 0.48 0.40 0.31 0.29 0.28 0.26 0.26 0.24 0.22 0.19 0.17 0.16
0.03 0.03 0.03 0.05 0.10 0.15 0.19 0.24 0.27 0.30 0.38 0.44 0.44 0.48 0.63 0.85 0.89 0.66 0.51 0.47 0.48 0.47 0.44 0.46 0.49 0.48 0.42 0.36 0.35 0.41 0.45 0.45 0.44 0.38 0.32 0.29 0.25 0.24 0.24 0.20 0.18 0.17 0.16 0.16
0.03 0.04 0.06 0.09 0.15 0.22 0.30 0.41 0.51 0.56 0.66 0.77 0.72 0.65 0.69 0.74 0.67 0.56 0.46 0.38 0.37 0.39 0.37 0.40 0.46 0.50 0.44 0.36 0.35 0.37 0.39 0.42 0.41 0.37 0.33 0.30 0.26 0.23 0.21 0.16 0.13 0.13 0.12 0.11
0.06 0.07 0.11 0.16 0.20 0.28 0.41 0.57 0.71 0.78 0.90 1.07 1.11 0.90 0.82 0.79 0.67 0.55 0.46 0.39 0.37 0.36 0.35 0.34 0.38 0.41 0.41 0.37 0.35 0.35 0.39 0.44 0.42 0.39 0.35 0.27 0.22 0.20 0.18 0.14 0.11 0.09 0.08 0.08